Airfield :
LOGIN :

Register | Disclaimer

   EN    FR    IT 

 










Legend :    VFR   Marginal VFR   IFR   Intensive IFR   Very Intensive IFR
Visi :
Ceiling :
>= 8 km
>= 3000ft
5 to 8 km
1000 to 3000 ft
1500m to 5 km
500 to 1000 ft
800 to 1500m
200 to 500 ft
< 800m
< 200 ft
Symbols :   Thunderstorms  Fog  Heavy snow  Heavy precipitations  Wind > 20 kt
SIGMETs :     Misc.  Thunderstorms  Icing  Turbulence  Mountain Waves  Volcanic Ashes







- Airport Elevation : 659 ft
- IATA code : LGG


EBLG - Liège

CURRENT METAR :
  • 200320Z 21010KT CAVOK 02/M01 Q1021 NOSIG

EXPIRED METARs :
  • 200250Z 21008KT CAVOK 02/M00 Q1022 NOSIG
  • 200220Z 21009KT CAVOK 02/M02 Q1022 NOSIG
  • 200050Z 22008KT CAVOK 02/M00 Q1022 NOSIG

TAF TAF EBLG
Valid from the 20 at 00:00 until the 21 at 06:00 UTC


192307Z 2000/2106 20008KT 9999 FEW030
BECMG 2010/2012 SCT005 BKN011
TEMPO 2011/2106 3000 DZRA SCT002 BKN006
TEMPO 2015/2022 22015G25KT
PROB30
TEMPO 2021/2106 2000 DZ OVC002
No reported NOTAMs for that airfield.



MET'MAP, your aeronautical weather chart ! - Copyright ORBIFLY December 2007 - Disclaimer

ORBIFLY MET'MAP TEAM :

Programming & Development : Alexandra Zaïnal
Concept & Development : Baudouin d'Aumeries
Co-Development & Prog : Marc-Olivier Méhu
Technical & hardware support : Manuel Goepfert

Contact : metmap@orbifly.com




SOURCES & CREDITS :

   NOAA